N890Q CYKF-KCLE

Flight info

Callsign N890Q
Flight time 0h 42m
Altitude 22000
Route ERI DCT TRYBE TRYBE4
Aircraft P180/L-SBDFGM3RWXY/LB1

Departure

Time 2026-05-09 03:13
Airport Region of Waterloo International Airport (CYKF)

Arrival

Time 2026-05-09 03:56
Airport Cleveland Hopkins International Airport (KCLE)
Time Latitude Longitude Altitude Speed Heading
2026-05-09 02:50 43.45479 -80.38291 1030 ft 0 kts 213°
2026-05-09 03:03 43.45483 -80.38287 1030 ft 3 kts 213°
2026-05-09 03:03 43.45503 -80.38267 1030 ft 4 kts 245°
2026-05-09 03:04 43.45505 -80.38257 1030 ft 0 kts 306°
2026-05-09 03:08 43.45507 -80.38259 1030 ft 2 kts 323°
2026-05-09 03:08 43.45558 -80.38274 1030 ft 12 kts 320°
2026-05-09 03:08 43.45640 -80.38322 1030 ft 17 kts 310°
2026-05-09 03:09 43.45715 -80.38452 1030 ft 12 kts 309°
2026-05-09 03:09 43.45785 -80.38510 1030 ft 12 kts 62°
2026-05-09 03:09 43.45831 -80.38386 1030 ft 18 kts 70°
2026-05-09 03:09 43.45894 -80.38197 1030 ft 25 kts 64°
2026-05-09 03:10 43.45967 -80.37976 1030 ft 20 kts 66°
2026-05-09 03:10 43.46016 -80.37834 1030 ft 16 kts 66°
2026-05-09 03:10 43.46073 -80.37661 1030 ft 23 kts 64°
2026-05-09 03:10 43.46145 -80.37452 1030 ft 26 kts 65°
2026-05-09 03:11 43.46226 -80.37208 1030 ft 30 kts 66°
2026-05-09 03:11 43.46311 -80.36954 1030 ft 12 kts 63°
2026-05-09 03:11 43.46356 -80.36822 1031 ft 19 kts 65°
2026-05-09 03:11 43.46422 -80.36627 1031 ft 25 kts 65°
2026-05-09 03:12 43.46502 -80.36564 1031 ft 14 kts 15°
2026-05-09 03:12 43.46514 -80.36560 1031 ft 1 kts 13°
2026-05-09 03:12 43.46547 -80.36562 1031 ft 9 kts 345°
2026-05-09 03:12 43.46581 -80.36649 1030 ft 10 kts 249°
2026-05-09 03:13 43.46321 -80.37415 1044 ft 132 kts 244°
2026-05-09 03:13 43.45937 -80.38686 1644 ft 156 kts 246°
2026-05-09 03:13 43.45490 -80.40194 2285 ft 176 kts 244°
2026-05-09 03:14 43.44996 -80.41708 2827 ft 175 kts 242°
2026-05-09 03:14 43.44420 -80.43278 3011 ft 193 kts 240°
2026-05-09 03:14 43.43679 -80.44858 3203 ft 202 kts 226°
2026-05-09 03:14 43.42585 -80.46092 3498 ft 203 kts 214°
2026-05-09 03:15 43.41338 -80.47081 3602 ft 215 kts 201°
2026-05-09 03:15 43.39929 -80.47706 3879 ft 208 kts 198°
2026-05-09 03:15 43.38583 -80.48405 4000 ft 210 kts 204°
2026-05-09 03:15 43.37247 -80.49248 3998 ft 212 kts 205°
2026-05-09 03:16 43.35900 -80.50080 3997 ft 212 kts 204°
2026-05-09 03:16 43.34562 -80.50885 3999 ft 212 kts 204°
2026-05-09 03:16 43.33195 -80.51711 3999 ft 212 kts 204°
2026-05-09 03:16 43.31857 -80.52519 4000 ft 212 kts 204°
2026-05-09 03:17 43.30509 -80.53333 4002 ft 212 kts 204°
2026-05-09 03:17 43.29157 -80.54149 4007 ft 212 kts 204°
2026-05-09 03:17 43.27808 -80.54964 4007 ft 212 kts 204°
2026-05-09 03:17 43.26460 -80.55777 4008 ft 212 kts 204°
2026-05-09 03:18 43.25109 -80.56591 4010 ft 211 kts 204°
2026-05-09 03:18 43.23759 -80.57404 4002 ft 211 kts 204°
2026-05-09 03:18 43.22405 -80.58220 4002 ft 212 kts 204°
2026-05-09 03:18 43.21068 -80.59025 4001 ft 213 kts 204°
2026-05-09 03:19 43.19708 -80.59843 4005 ft 213 kts 204°
2026-05-09 03:19 43.18349 -80.60661 4006 ft 213 kts 204°
2026-05-09 03:19 43.16992 -80.61475 4003 ft 213 kts 204°
2026-05-09 03:19 43.15628 -80.62296 4004 ft 213 kts 204°
2026-05-09 03:20 43.14268 -80.63111 4004 ft 213 kts 204°
2026-05-09 03:20 43.12913 -80.63921 4111 ft 208 kts 204°
2026-05-09 03:20 43.11628 -80.64692 4504 ft 198 kts 204°
2026-05-09 03:20 43.10382 -80.65442 4933 ft 198 kts 205°
2026-05-09 03:21 43.09113 -80.66204 5359 ft 200 kts 205°
2026-05-09 03:21 43.07831 -80.66971 5795 ft 202 kts 205°
2026-05-09 03:21 43.06542 -80.67743 6268 ft 201 kts 206°
2026-05-09 03:21 43.05265 -80.68506 6764 ft 199 kts 206°
2026-05-09 03:22 43.04002 -80.69260 7256 ft 197 kts 207°
2026-05-09 03:22 43.02751 -80.70012 7762 ft 198 kts 208°
2026-05-09 03:22 43.01456 -80.70790 8278 ft 209 kts 208°
2026-05-09 03:22 43.00102 -80.71598 8810 ft 215 kts 209°
2026-05-09 03:23 42.98721 -80.72422 9349 ft 218 kts 210°
2026-05-09 03:23 42.97320 -80.73263 9881 ft 220 kts 210°
2026-05-09 03:23 42.95928 -80.74090 10365 ft 221 kts 210°
2026-05-09 03:23 42.94515 -80.74931 10861 ft 222 kts 210°
2026-05-09 03:24 42.93094 -80.75773 11376 ft 223 kts 210°
2026-05-09 03:24 42.91671 -80.76624 11873 ft 223 kts 210°
2026-05-09 03:24 42.90249 -80.77469 12390 ft 223 kts 210°
2026-05-09 03:24 42.88828 -80.78314 12915 ft 223 kts 211°
2026-05-09 03:25 42.87408 -80.79161 13451 ft 222 kts 211°
2026-05-09 03:25 42.85986 -80.80004 13957 ft 222 kts 211°
2026-05-09 03:25 42.84575 -80.80844 14416 ft 221 kts 211°
2026-05-09 03:25 42.83176 -80.81672 14903 ft 220 kts 211°
2026-05-09 03:26 42.81777 -80.82503 15403 ft 219 kts 211°
2026-05-09 03:26 42.80388 -80.83328 15909 ft 217 kts 212°
2026-05-09 03:26 42.79011 -80.84143 16422 ft 215 kts 212°
2026-05-09 03:26 42.77636 -80.84959 16945 ft 213 kts 212°
2026-05-09 03:27 42.76283 -80.85754 17473 ft 211 kts 212°
2026-05-09 03:27 42.74946 -80.86539 18027 ft 206 kts 213°
2026-05-09 03:27 42.73654 -80.87323 18558 ft 201 kts 214°
2026-05-09 03:27 42.72387 -80.88067 19080 ft 196 kts 214°
2026-05-09 03:28 42.71167 -80.88818 19608 ft 186 kts 221°
2026-05-09 03:28 42.70262 -80.89900 20139 ft 169 kts 239°
2026-05-09 03:28 42.69586 -80.91197 20588 ft 167 kts 242°
2026-05-09 03:28 42.68907 -80.92496 20998 ft 170 kts 242°
2026-05-09 03:29 42.68218 -80.93814 21416 ft 171 kts 242°
2026-05-09 03:29 42.67527 -80.95141 21841 ft 173 kts 242°
2026-05-09 03:29 42.66824 -80.96496 22011 ft 186 kts 243°
2026-05-09 03:29 42.66033 -80.98030 22002 ft 205 kts 242°
2026-05-09 03:30 42.65177 -80.99669 21943 ft 222 kts 241°
2026-05-09 03:30 42.64261 -81.01420 21890 ft 237 kts 240°
2026-05-09 03:30 42.63287 -81.03278 21891 ft 246 kts 240°
2026-05-09 03:30 42.62275 -81.05211 21891 ft 254 kts 240°
2026-05-09 03:31 42.61234 -81.07202 21885 ft 261 kts 240°
2026-05-09 03:31 42.60160 -81.09260 21884 ft 274 kts 240°
2026-05-09 03:31 42.59042 -81.11398 21884 ft 282 kts 240°
2026-05-09 03:31 42.57883 -81.13600 21885 ft 288 kts 239°
2026-05-09 03:32 42.56714 -81.15830 21884 ft 293 kts 240°
2026-05-09 03:32 42.55525 -81.18100 21884 ft 296 kts 239°
2026-05-09 03:32 42.54336 -81.20359 21884 ft 299 kts 239°
2026-05-09 03:32 42.53124 -81.22660 21880 ft 301 kts 239°
2026-05-09 03:33 42.51905 -81.24990 21879 ft 303 kts 239°
2026-05-09 03:33 42.50672 -81.27329 21880 ft 305 kts 239°
2026-05-09 03:33 42.49435 -81.29665 21877 ft 306 kts 239°
2026-05-09 03:33 42.48200 -81.32019 21878 ft 306 kts 239°
2026-05-09 03:34 42.46961 -81.34370 21877 ft 307 kts 239°
2026-05-09 03:34 42.45711 -81.36725 21872 ft 308 kts 239°
2026-05-09 03:34 42.44465 -81.39090 21875 ft 309 kts 239°
2026-05-09 03:34 42.43219 -81.41455 21875 ft 309 kts 239°
2026-05-09 03:35 42.41963 -81.43815 21875 ft 309 kts 239°
2026-05-09 03:35 42.40712 -81.46175 21875 ft 309 kts 239°
2026-05-09 03:35 42.39460 -81.48551 21874 ft 309 kts 239°
2026-05-09 03:35 42.38221 -81.50881 21872 ft 309 kts 239°
2026-05-09 03:36 42.36962 -81.53241 21869 ft 310 kts 239°
2026-05-09 03:36 42.35710 -81.55612 21869 ft 310 kts 239°
2026-05-09 03:36 42.34449 -81.57983 21815 ft 311 kts 239°
2026-05-09 03:36 42.33594 -81.59581 21643 ft 316 kts 239°
2026-05-09 03:37 42.32310 -81.62003 21332 ft 318 kts 239°
2026-05-09 03:37 42.31011 -81.64443 21000 ft 321 kts 238°
2026-05-09 03:37 42.29278 -81.67680 20554 ft 321 kts 238°
2026-05-09 03:37 42.27972 -81.70136 20223 ft 322 kts 238°
2026-05-09 03:38 42.27101 -81.71765 20005 ft 322 kts 238°
2026-05-09 03:38 42.25786 -81.74215 19663 ft 322 kts 238°
2026-05-09 03:38 42.24474 -81.76674 19338 ft 322 kts 238°
2026-05-09 03:38 42.23164 -81.79126 19007 ft 322 kts 238°
2026-05-09 03:39 42.21846 -81.81574 18668 ft 321 kts 238°
2026-05-09 03:39 42.20535 -81.84018 18340 ft 321 kts 238°
2026-05-09 03:39 42.19228 -81.86463 17992 ft 320 kts 238°
2026-05-09 03:39 42.17920 -81.88896 17652 ft 319 kts 237°
2026-05-09 03:40 42.16631 -81.91283 17324 ft 318 kts 237°
2026-05-09 03:40 42.15337 -81.93694 16996 ft 317 kts 237°
2026-05-09 03:40 42.14045 -81.96098 16670 ft 316 kts 237°
2026-05-09 03:40 42.12748 -81.98497 16410 ft 313 kts 237°
2026-05-09 03:41 42.11472 -82.00866 16119 ft 312 kts 237°
2026-05-09 03:41 42.10193 -82.03238 15806 ft 313 kts 237°
2026-05-09 03:41 42.08926 -82.05580 15488 ft 313 kts 237°
2026-05-09 03:41 42.07646 -82.07949 15167 ft 314 kts 236°
2026-05-09 03:42 42.06362 -82.10327 14842 ft 314 kts 236°
2026-05-09 03:42 42.05073 -82.12703 14516 ft 314 kts 236°
2026-05-09 03:42 42.03787 -82.15069 14194 ft 314 kts 236°
2026-05-09 03:42 42.02277 -82.17209 13856 ft 319 kts 219°
2026-05-09 03:43 42.00319 -82.18646 13519 ft 323 kts 207°
2026-05-09 03:43 41.98111 -82.19313 13166 ft 330 kts 190°
2026-05-09 03:43 41.95829 -82.19603 12834 ft 328 kts 192°
2026-05-09 03:43 41.93579 -82.20034 12495 ft 327 kts 193°
2026-05-09 03:44 41.91319 -82.20429 12152 ft 327 kts 191°
2026-05-09 03:44 41.89048 -82.20713 11817 ft 327 kts 188°
2026-05-09 03:44 41.86794 -82.20351 11465 ft 338 kts 166°
2026-05-09 03:44 41.84684 -82.18888 11127 ft 345 kts 149°
2026-05-09 03:45 41.83030 -82.16514 10765 ft 353 kts 127°
2026-05-09 03:45 41.81771 -82.13704 10420 ft 347 kts 124°
2026-05-09 03:45 41.80553 -82.11034 10074 ft 321 kts 125°
2026-05-09 03:45 41.79422 -82.08571 9758 ft 302 kts 125°
2026-05-09 03:46 41.78336 -82.06199 9428 ft 296 kts 125°
2026-05-09 03:46 41.77263 -82.03845 9126 ft 294 kts 125°
2026-05-09 03:46 41.76204 -82.01544 8825 ft 292 kts 126°
2026-05-09 03:46 41.75141 -81.99241 8524 ft 291 kts 126°
2026-05-09 03:47 41.74087 -81.96932 8236 ft 289 kts 125°
2026-05-09 03:47 41.73041 -81.94644 7952 ft 288 kts 126°
2026-05-09 03:47 41.71981 -81.92360 7656 ft 287 kts 126°
2026-05-09 03:47 41.70927 -81.90087 7357 ft 286 kts 126°
2026-05-09 03:48 41.69870 -81.87866 7053 ft 277 kts 128°
2026-05-09 03:48 41.68843 -81.85756 6777 ft 267 kts 128°
2026-05-09 03:48 41.67838 -81.83639 6494 ft 271 kts 126°
2026-05-09 03:48 41.66871 -81.81509 6213 ft 272 kts 126°
2026-05-09 03:49 41.65881 -81.79351 5927 ft 273 kts 126°
2026-05-09 03:49 41.64861 -81.77212 5637 ft 272 kts 127°
2026-05-09 03:49 41.63831 -81.75081 5353 ft 272 kts 127°
2026-05-09 03:49 41.62764 -81.73040 5062 ft 262 kts 138°
2026-05-09 03:50 41.61264 -81.71927 4986 ft 237 kts 171°
2026-05-09 03:50 41.59691 -81.71490 4991 ft 224 kts 175°
2026-05-09 03:50 41.58186 -81.71085 4847 ft 220 kts 175°
2026-05-09 03:50 41.56685 -81.70673 4592 ft 221 kts 175°
2026-05-09 03:51 41.55164 -81.70258 4299 ft 223 kts 175°
2026-05-09 03:51 41.53657 -81.69974 4002 ft 218 kts 189°
2026-05-09 03:51 41.52276 -81.70634 3716 ft 208 kts 215°
2026-05-09 03:51 41.51037 -81.71614 3442 ft 207 kts 215°
2026-05-09 03:52 41.49782 -81.72574 3169 ft 207 kts 215°
2026-05-09 03:52 41.48605 -81.73643 2887 ft 201 kts 229°
2026-05-09 03:52 41.47835 -81.74956 2646 ft 147 kts 234°
2026-05-09 03:52 41.47253 -81.75843 2498 ft 120 kts 232°
2026-05-09 03:53 41.46747 -81.76685 2287 ft 113 kts 236°
2026-05-09 03:53 41.46269 -81.77497 2084 ft 110 kts 232°
2026-05-09 03:53 41.45789 -81.78240 2047 ft 107 kts 229°
2026-05-09 03:53 41.45286 -81.79001 1892 ft 112 kts 233°
2026-05-09 03:54 41.44774 -81.79812 1773 ft 114 kts 228°
2026-05-09 03:54 41.44246 -81.80630 1653 ft 119 kts 230°
2026-05-09 03:54 41.43743 -81.81542 1519 ft 125 kts 231°
2026-05-09 03:54 41.43131 -81.82397 1328 ft 130 kts 226°
2026-05-09 03:55 41.42565 -81.83325 1182 ft 126 kts 229°
2026-05-09 03:55 41.41985 -81.84212 961 ft 126 kts 227°
2026-05-09 03:55 41.41418 -81.85098 799 ft 113 kts 227°
2026-05-09 03:55 41.41031 -81.85702 780 ft 50 kts 229°
2026-05-09 03:56 41.40843 -81.85926 780 ft 21 kts 187°
2026-05-09 03:56 41.40679 -81.85754 776 ft 36 kts 121°
2026-05-09 03:56 41.40565 -81.85467 779 ft 34 kts 93°
2026-05-09 03:56 41.40578 -81.85154 782 ft 34 kts 73°
2026-05-09 03:57 41.40682 -81.84875 786 ft 34 kts 59°
2026-05-09 03:57 41.40799 -81.84599 791 ft 35 kts 69°
2026-05-09 03:57 41.40969 -81.84372 794 ft 36 kts
2026-05-09 03:57 41.41224 -81.84369 792 ft 32 kts 21°
2026-05-09 03:58 41.41283 -81.84125 793 ft 30 kts 109°
2026-05-09 03:58 41.41185 -81.84009 791 ft 15 kts 252°
2026-05-09 03:58 41.41174 -81.84027 791 ft 0 kts 188°